Вернуться в каталог

CZ-4B DEB

АктивенSSO
NORAD 49046·DEBRIS·🇨🇳 China

Запущен Sep 27, 2020 с Taiyuan Satellite Launch Center

Loading…

Ближайшие Пролёты (ближайшие 24 часа)

TLE

СвежийSource: Space-Track

Эпоха: Sep 14, 2026, 07:52 UTC

1 49046U 20067H   26257.32801664  .00001250  00000-0  18138-3 0  9992
2 49046  97.7331 290.6474 0029370   9.1735 351.0006 14.77412676297045

Отслеживайте CZ-4B DEB в реальном времени с AllMySat

Download on the App Store